Location: ??????
(38.1303°N, 24.0039°E)
Time: 07:27:37
(UTC+00:00)

Cosmos 2266 Rocket - Pass Details

Date: 20 June 2021
Orbit: 934 x 1007 km, 82.9° (Epoch: 23 July)

Event Time Altitude Azimuth Distance (km) Brightness Sun altitude
Exits shadow 01:04:30 16° 172° (S) 2,288 5.6 -18.0°
Maximum altitude 01:09:29 65° 93° (E) 1,033 4.2 -17.4°
Drops below altitude 10° 01:15:28 10° 13° (NNE) 2,660 7.3 -16.7°
Sets 01:17:58 0° 11° (N) 3,604 8.0 -16.3°
